Dades meteomassalio
Diari Summary for Juny 8, 2017 Units:  English    Metric   Both
« Previous Day
Next Day »
Diari Semanal Mensual Anual Personalitzat
  Maxima: Minima: Mijana:
Temperatura: TemperatureC °F 14.0 °F 22.6 °F
Rosada: DewpointC °F 11.7 °F 15.6 °F
Humitat: Humidity % 44 % 67 %
Velocitat del vent: WindSpeedKMH mph 0.0 mph 7.9 mph
Racha vent: WindSpeedGustKMH mph - -
Vent:- - ESE
Pressio: PressurehPa in 1011.4 in -
Pluja: 0.0 in    
Historical Graphs
 
 
Tabular Data for Juny 8, 2017
Time Temperature Dew Point Pressure Wind Wind Speed Wind Gust Humidity Rainfall Rate (Hourly) solar Conditions
TemperatureC °F DewpointC °F PressurehPa in Calm     Humidity % HourlyPrecipMM in SolarRadiationWatts/m^2 W/m2 Conditions
00:00 19.3 °F 16.0 °F 1018.5 in Calm     81 % 0.0 in 0.0 W/m2 CLR
00:05 19.2 °F 16.1 °F 1018.5 in Calm     82 % 0.0 in 0.0 W/m2 CLR
00:10 19.1 °F 15.9 °F 1018.5 in Calm     82 % 0.0 in 0.0 W/m2 CLR
00:15 18.9 °F 16.0 °F 1018.5 in Calm     83 % 0.0 in 0.0 W/m2 CLR
00:20 18.9 °F 16.0 °F 1018.5 in Calm     83 % 0.0 in 0.0 W/m2 CLR
00:25 18.9 °F 16.2 °F 1018.5 in Calm     84 % 0.0 in 0.0 W/m2 CLR
00:30 19.0 °F 16.2 °F 1018.5 in Calm     84 % 0.0 in 0.0 W/m2 CLR
00:35 19.1 °F 16.3 °F 1018.5 in Calm     84 % 0.0 in 0.0 W/m2 CLR
00:40 19.1 °F 16.3 °F 1018.5 in Calm     84 % 0.0 in 0.0 W/m2 CLR
00:45 19.0 °F 16.2 °F 1018.5 in Calm     84 % 0.0 in 0.0 W/m2 CLR
00:50 18.9 °F 16.1 °F 1018.5 in Calm     84 % 0.0 in 0.0 W/m2 CLR
00:55 18.8 °F 16.1 °F 1018.5 in Calm     84 % 0.0 in 0.0 W/m2 CLR
01:00 18.7 °F 15.9 °F 1018.5 in Calm     84 % 0.0 in 0.0 W/m2 CLR
01:05 18.7 °F 16.1 °F 1018.5 in Calm     85 % 0.0 in 0.0 W/m2 CLR
01:10 18.7 °F 16.2 °F 1018.5 in Calm     85 % 0.0 in 0.0 W/m2 CLR
01:15 18.8 °F 16.2 °F 1018.5 in Calm     85 % 0.0 in 0.0 W/m2 CLR
01:20 18.7 °F 16.2 °F 1018.2 in Calm     85 % 0.0 in 0.0 W/m2 CLR
01:25 18.6 °F 16.1 °F 1018.2 in Calm     85 % 0.0 in 0.0 W/m2 CLR
01:30 18.6 °F 16.2 °F 1018.2 in Calm     86 % 0.0 in 0.0 W/m2 CLR
01:35 18.5 °F 16.1 °F 1018.2 in Calm     86 % 0.0 in 0.0 W/m2 CLR
01:40 18.4 °F 16.0 °F 1018.2 in Calm     86 % 0.0 in 0.0 W/m2 CLR
01:45 18.3 °F 15.9 °F 1018.2 in Calm     86 % 0.0 in 0.0 W/m2 CLR
01:50 18.2 °F 16.0 °F 1018.2 in Calm     87 % 0.0 in 0.0 W/m2 CLR
01:55 18.1 °F 15.9 °F 1018.2 in Calm     87 % 0.0 in 0.0 W/m2 CLR
02:00 18.1 °F 15.8 °F 1018.2 in Calm     87 % 0.0 in 0.0 W/m2 CLR
02:05 17.9 °F 15.7 °F 1018.2 in Calm     87 % 0.0 in 0.0 W/m2 CLR
02:10 17.8 °F 15.6 °F 1018.2 in Calm     87 % 0.0 in 0.0 W/m2 CLR
02:15 17.7 °F 15.5 °F 1018.2 in Calm     87 % 0.0 in 0.0 W/m2 CLR
02:20 17.5 °F 15.3 °F 1018.2 in Calm     87 % 0.0 in 0.0 W/m2 CLR
02:25 17.4 °F 15.4 °F 1018.2 in Calm     88 % 0.0 in 0.0 W/m2 CLR
02:30 17.3 °F 15.3 °F 1018.2 in Calm     88 % 0.0 in 0.0 W/m2 CLR
02:35 17.2 °F 15.2 °F 1018.2 in Calm     88 % 0.0 in 0.0 W/m2 CLR
02:40 17.2 °F 15.4 °F 1017.8 in Calm     89 % 0.0 in 0.0 W/m2 CLR
02:45 17.3 °F 15.4 °F 1017.8 in Calm     89 % 0.0 in 0.0 W/m2 CLR
02:50 17.2 °F 15.4 °F 1017.8 in Calm     89 % 0.0 in 0.0 W/m2 CLR
02:55 17.1 °F 15.3 °F 1017.8 in Calm     89 % 0.0 in 0.0 W/m2 CLR
03:00 17.0 °F 15.2 °F 1017.8 in Calm     89 % 0.0 in 0.0 W/m2 CLR
03:05 16.9 °F 15.1 °F 1017.8 in Calm     89 % 0.0 in 0.0 W/m2 CLR
03:10 16.8 °F 14.9 °F 1017.8 in Calm     89 % 0.0 in 0.0 W/m2 CLR
03:15 16.7 °F 15.0 °F 1017.8 in Calm     90 % 0.0 in 0.0 W/m2 CLR
03:20 16.7 °F 15.0 °F 1017.8 in Calm     90 % 0.0 in 0.0 W/m2 CLR
03:25 16.6 °F 14.9 °F 1017.8 in Calm     90 % 0.0 in 0.0 W/m2 CLR
03:30 16.4 °F 14.8 °F 1017.8 in Calm     90 % 0.0 in 0.0 W/m2 CLR
03:35 16.3 °F 14.7 °F 1017.8 in Calm     90 % 0.0 in 0.0 W/m2 CLR
03:40 16.3 °F 14.6 °F 1017.8 in Calm     90 % 0.0 in 0.0 W/m2 CLR
03:45 16.2 °F 14.5 °F 1017.8 in Calm     90 % 0.0 in 0.0 W/m2 CLR
03:46 16.1 °F 14.4 °F 1017.8 in Calm     90 % 0.0 in 0.0 W/m2 CLR
03:51 16.0 °F 14.3 °F 1017.8 in Calm     90 % 0.0 in 0.0 W/m2 CLR
03:56 15.9 °F 14.3 °F 1017.8 in Calm     90 % 0.0 in 0.0 W/m2 CLR
04:01 15.8 °F 14.2 °F 1017.8 in Calm     90 % 0.0 in 0.0 W/m2 CLR
04:06 15.8 °F 14.2 °F 1017.5 in Calm     90 % 0.0 in 0.0 W/m2 CLR
04:11 15.8 °F 14.2 °F 1017.5 in Calm     90 % 0.0 in 0.0 W/m2 CLR
04:17 15.7 °F 14.1 °F 1017.8 in Calm     90 % 0.0 in 0.0 W/m2 CLR
04:22 15.6 °F 14.2 °F 1017.8 in Calm     91 % 0.0 in 0.0 W/m2 CLR
04:27 15.5 °F 14.1 °F 1017.5 in Calm     91 % 0.0 in 0.0 W/m2 CLR
04:32 15.5 °F 14.1 °F 1017.8 in Calm     91 % 0.0 in 0.0 W/m2 CLR
04:37 15.4 °F 14.0 °F 1017.8 in Calm     91 % 0.0 in 0.0 W/m2 CLR
04:42 15.4 °F 13.9 °F 1017.8 in Calm     91 % 0.0 in 0.0 W/m2 CLR
04:47 15.3 °F 13.8 °F 1017.5 in Calm     91 % 0.0 in 0.0 W/m2 CLR
04:52 15.2 °F 13.8 °F 1017.5 in Calm     91 % 0.0 in 0.0 W/m2 CLR
04:57 15.2 °F 13.7 °F 1017.5 in Calm     91 % 0.0 in 0.0 W/m2 CLR
05:02 15.1 °F 13.7 °F 1017.5 in Calm     91 % 0.0 in 0.0 W/m2 CLR
05:07 15.1 °F 13.7 °F 1017.5 in Calm     91 % 0.0 in 0.0 W/m2 CLR
05:12 15.1 °F 13.6 °F 1017.5 in Calm     91 % 0.0 in 0.0 W/m2 CLR
05:17 15.0 °F 13.6 °F 1017.5 in Calm     91 % 0.0 in 0.0 W/m2 CLR
05:22 14.9 °F 13.4 °F 1017.5 in Calm     91 % 0.0 in 0.0 W/m2 CLR
05:27 14.8 °F 13.3 °F 1017.5 in Calm     91 % 0.0 in 0.0 W/m2 CLR
05:33 14.7 °F 13.3 °F 1017.5 in Calm     91 % 0.0 in 0.0 W/m2 CLR
05:38 14.7 °F 13.4 °F 1017.5 in Calm     92 % 0.0 in 0.0 W/m2 CLR
05:43 14.6 °F 13.3 °F 1017.5 in Calm     92 % 0.0 in 0.0 W/m2 CLR
05:48 14.6 °F 13.3 °F 1017.5 in Calm     92 % 0.0 in 0.0 W/m2 CLR
05:53 14.5 °F 13.2 °F 1017.5 in Calm     92 % 0.0 in 0.0 W/m2 CLR
05:58 14.4 °F 13.2 °F 1017.5 in Calm     92 % 0.0 in 0.0 W/m2 CLR
06:03 14.4 °F 13.1 °F 1017.5 in Calm     92 % 0.0 in 0.0 W/m2 CLR
06:08 14.3 °F 13.1 °F 1017.5 in Calm     92 % 0.0 in 0.0 W/m2 CLR
06:13 14.3 °F 13.0 °F 1017.5 in Calm     92 % 0.0 in 0.0 W/m2 CLR
06:18 14.2 °F 12.9 °F 1017.5 in Calm     92 % 0.0 in 0.0 W/m2 OVC
06:23 14.2 °F 12.9 °F 1017.5 in Calm     92 % 0.0 in 0.0 W/m2 OVC
06:28 14.1 °F 12.8 °F 1017.8 in Calm     92 % 0.0 in 0.0 W/m2 OVC
06:33 14.1 °F 12.8 °F 1017.8 in Calm     92 % 0.0 in 7.0 W/m2 BKN
06:38 14.0 °F 12.7 °F 1017.8 in Calm     92 % 0.0 in 9.0 W/m2 BKN
06:43 14.0 °F 12.7 °F 1017.8 in Calm     92 % 0.0 in 12.0 W/m2 BKN
06:48 14.0 °F 12.7 °F 1017.8 in Calm     92 % 0.0 in 14.0 W/m2 BKN
06:53 14.0 °F 12.7 °F 1017.8 in Calm     92 % 0.0 in 18.0 W/m2 BKN
06:58 14.0 °F 12.7 °F 1017.8 in Calm     92 % 0.0 in 21.0 W/m2 BKN
07:03 14.1 °F 12.8 °F 1017.8 in Calm     92 % 0.0 in 26.0 W/m2 BKN
07:08 14.2 °F 12.9 °F 1017.8 in Calm     92 % 0.0 in 35.0 W/m2 BKN
07:13 14.3 °F 13.0 °F 1017.8 in Calm     92 % 0.0 in 42.0 W/m2 BKN
07:18 14.4 °F 13.2 °F 1017.8 in Calm     92 % 0.0 in 53.0 W/m2 SCT
07:23 14.5 °F 13.2 °F 1017.8 in Calm     92 % 0.0 in 63.0 W/m2 SCT
07:28 14.6 °F 13.3 °F 1017.8 in Calm     92 % 0.0 in 47.0 W/m2 SCT
07:33 14.6 °F 13.3 °F 1017.8 in Calm     92 % 0.0 in 49.0 W/m2 FEW
07:38 14.7 °F 13.4 °F 1017.8 in Calm     92 % 0.0 in 88.0 W/m2 SCT
07:43 14.9 °F 13.6 °F 1017.8 in Calm     92 % 0.0 in 114.0 W/m2 FEW
07:48 15.1 °F 13.8 °F 1017.8 in Calm     92 % 0.0 in 104.0 W/m2 CLR
07:53 15.3 °F 14.0 °F 1017.8 in Calm     92 % 0.0 in 70.0 W/m2 CLR
07:58 15.4 °F 14.1 °F 1017.8 in Calm     92 % 0.0 in 120.0 W/m2 CLR
08:03 15.5 °F 14.2 °F 1017.8 in Calm     92 % 0.0 in 98.0 W/m2 CLR
08:08 15.6 °F 14.3 °F 1017.8 in Calm     92 % 0.0 in 79.0 W/m2 CLR
08:13 15.6 °F 14.2 °F 1017.8 in Calm     91 % 0.0 in 121.0 W/m2 CLR
08:18 15.8 °F 14.5 °F 1017.8 in Calm     92 % 0.0 in 137.0 W/m2 CLR
08:23 16.0 °F 14.7 °F 1017.8 in Calm     92 % 0.0 in 135.0 W/m2 CLR
08:28 16.2 °F 14.9 °F 1017.8 in Calm     92 % 0.0 in 155.0 W/m2 CLR
08:33 16.6 °F 15.3 °F 1017.8 in Calm     92 % 0.0 in 141.0 W/m2 CLR
08:38 16.9 °F 15.4 °F 1017.8 in Calm     91 % 0.0 in 160.0 W/m2 CLR
08:43 17.1 °F 15.6 °F 1017.8 in Calm     91 % 0.0 in 227.0 W/m2 CLR
08:48 17.3 °F 15.8 °F 1017.8 in Calm     91 % 0.0 in 178.0 W/m2 CLR
08:53 17.4 °F 15.9 °F 1017.8 in Calm     91 % 0.0 in 195.0 W/m2 CLR
08:58 17.8 °F 16.4 °F 1017.8 in Calm     92 % 0.0 in 250.0 W/m2 CLR
09:03 18.1 °F 16.6 °F 1017.8 in Calm     91 % 0.0 in 367.0 W/m2 CLR
09:08 18.4 °F 16.9 °F 1017.8 in Calm     91 % 0.0 in 387.0 W/m2 CLR
09:13 18.8 °F 17.0 °F 1017.5 in Calm     89 % 0.0 in 383.0 W/m2 CLR
09:18 19.2 °F 17.2 °F 1017.5 in Calm     88 % 0.0 in 410.0 W/m2 CLR
09:23 19.7 °F 17.4 °F 1017.5 in Calm     87 % 0.0 in 434.0 W/m2 CLR
09:28 19.9 °F 17.3 °F 1017.5 in Calm     85 % 0.0 in 450.0 W/m2 CLR
09:33 20.3 °F 17.7 °F 1017.5 in Calm     85 % 0.0 in 464.0 W/m2 CLR
09:38 20.8 °F 17.7 °F 1017.5 in Calm     82 % 0.0 in 482.0 W/m2 CLR
09:43 21.3 °F 17.9 °F 1017.5 in Calm     81 % 0.0 in 494.0 W/m2 CLR
09:48 21.6 °F 17.8 °F 1017.5 in Calm     79 % 0.0 in 513.0 W/m2 CLR
09:53 22.1 °F 18.1 °F 1017.5 in Calm     78 % 0.0 in 527.0 W/m2 CLR
09:58 22.3 °F 18.1 °F 1017.5 in Calm     77 % 0.0 in 543.0 W/m2 CLR
10:04 22.6 °F 17.7 °F 1017.5 in Calm   0.2 mph 74 % 0.0 in 561.0 W/m2 CLR
10:09 22.6 °F 17.7 °F 1017.5 in Calm     74 % 0.0 in 573.0 W/m2 CLR
10:14 22.6 °F 17.7 °F 1017.5 in Calm     74 % 0.0 in 584.0 W/m2 CLR
10:19 22.6 °F 17.5 °F 1017.5 in ENE 3.7 mph   73 % 0.0 in 598.0 W/m2 CLR
10:24 22.9 °F 17.8 °F 1017.2 in ESE 7.4 mph 7.4 mph 73 % 0.0 in 613.0 W/m2 CLR
10:29 22.8 °F 17.3 °F 1017.2 in East 3.7 mph 3.7 mph 71 % 0.0 in 628.0 W/m2 CLR
10:34 22.9 °F 17.4 °F 1017.2 in Calm     71 % 0.0 in 643.0 W/m2 CLR
10:39 23.1 °F 17.8 °F 1017.2 in NE 1.9 mph 1.9 mph 72 % 0.0 in 650.0 W/m2 CLR
10:44 23.3 °F 17.9 °F 1017.2 in ENE 8.0 mph 8.0 mph 72 % 0.0 in 668.0 W/m2 CLR
10:49 23.5 °F 17.7 °F 1017.2 in Calm     70 % 0.0 in 680.0 W/m2 CLR
10:54 23.9 °F 18.1 °F 1017.2 in ENE 7.4 mph 7.4 mph 70 % 0.0 in 691.0 W/m2 CLR
10:59 24.2 °F 18.1 °F 1017.2 in West 1.9 mph 1.9 mph 69 % 0.0 in 707.0 W/m2 CLR
11:04 24.3 °F 18.1 °F 1016.8 in SE 5.6 mph 5.6 mph 68 % 0.0 in 717.0 W/m2 CLR
11:09 24.2 °F 17.9 °F 1017.2 in ENE 11.1 mph 11.1 mph 68 % 0.0 in 731.0 W/m2 CLR
11:14 24.2 °F 17.4 °F 1016.8 in Calm     66 % 0.0 in 744.0 W/m2 CLR
11:19 24.2 °F 17.9 °F 1016.8 in Calm     68 % 0.0 in 747.0 W/m2 CLR
11:24 24.3 °F 17.3 °F 1016.8 in ENE 5.6 mph   65 % 0.0 in 763.0 W/m2 CLR
11:29 24.4 °F 17.7 °F 1016.8 in ENE 9.3 mph 9.3 mph 66 % 0.0 in 773.0 W/m2 CLR
11:34 24.7 °F 17.7 °F 1016.8 in North 3.7 mph 3.7 mph 65 % 0.0 in 784.0 W/m2 CLR
11:39 24.8 °F 17.6 °F 1016.8 in NE 8.0 mph 8.0 mph 64 % 0.0 in 786.0 W/m2 CLR
11:44 24.8 °F 17.3 °F 1016.8 in NNW 9.3 mph 9.3 mph 63 % 0.0 in 803.0 W/m2 CLR
11:49 24.9 °F 17.7 °F 1016.8 in Calm     64 % 0.0 in 812.0 W/m2 CLR
11:54 25.3 °F 17.5 °F 1016.8 in Calm     62 % 0.0 in 819.0 W/m2 CLR
11:59 25.7 °F 17.6 °F 1016.5 in Calm     61 % 0.0 in 831.0 W/m2 CLR
12:04 26.0 °F 17.9 °F 1016.5 in NE 9.3 mph 9.3 mph 61 % 0.0 in 840.0 W/m2 CLR
12:09 26.3 °F 17.7 °F 1016.5 in North 5.6 mph 5.6 mph 59 % 0.0 in 844.0 W/m2 CLR
12:14 26.2 °F 17.5 °F 1016.5 in Calm     59 % 0.0 in 854.0 W/m2 CLR
12:19 26.3 °F 17.9 °F 1016.1 in NE 11.1 mph 11.1 mph 60 % 0.0 in 861.0 W/m2 CLR
12:24 26.4 °F 18.1 °F 1016.1 in Calm     60 % 0.0 in 867.0 W/m2 CLR
12:29 26.7 °F 17.7 °F 1016.1 in NE 7.4 mph 7.4 mph 58 % 0.0 in 877.0 W/m2 CLR
12:34 26.7 °F 17.8 °F 1016.1 in NE 14.8 mph 14.8 mph 58 % 0.0 in 874.0 W/m2 CLR
12:39 26.8 °F 17.6 °F 1016.1 in North 5.6 mph 5.6 mph 57 % 0.0 in 891.0 W/m2 CLR
12:44 26.9 °F 17.7 °F 1016.1 in North 8.0 mph 8.0 mph 57 % 0.0 in 884.0 W/m2 CLR
12:49 26.9 °F 17.7 °F 1016.1 in NNW 14.8 mph 14.8 mph 57 % 0.0 in 898.0 W/m2 CLR
12:54 27.0 °F 17.8 °F 1015.8 in NE 16.7 mph 16.7 mph 57 % 0.0 in 905.0 W/m2 CLR
12:59 27.4 °F 17.9 °F 1015.8 in NNE 11.1 mph 11.1 mph 56 % 0.0 in 902.0 W/m2 CLR
13:04 27.6 °F 18.1 °F 1015.8 in East 9.3 mph 9.3 mph 56 % 0.0 in 912.0 W/m2 CLR
13:09 27.6 °F 17.4 °F 1015.8 in NE 13.0 mph 13.0 mph 54 % 0.0 in 918.0 W/m2 CLR
13:14 27.6 °F 17.4 °F 1015.8 in SE 8.0 mph 8.0 mph 54 % 0.0 in 923.0 W/m2 CLR
13:19 27.6 °F 17.4 °F 1015.8 in ENE 3.7 mph 3.7 mph 54 % 0.0 in 925.0 W/m2 CLR
13:24 27.8 °F 17.3 °F 1015.8 in Calm     53 % 0.0 in 930.0 W/m2 CLR
13:29 27.9 °F 17.2 °F 1015.8 in Calm   2.4 mph 52 % 0.0 in 933.0 W/m2 CLR
13:34 28.1 °F 17.0 °F 1015.8 in ESE 13.0 mph 13.0 mph 51 % 0.0 in 935.0 W/m2 CLR
13:39 28.1 °F 16.3 °F 1015.5 in ESE 5.6 mph 5.6 mph 49 % 0.0 in 935.0 W/m2 CLR
13:44 28.2 °F 17.1 °F 1015.5 in NE 8.0 mph 8.0 mph 51 % 0.0 in 937.0 W/m2 CLR
13:49 28.6 °F 17.1 °F 1015.5 in ENE 16.7 mph 16.7 mph 50 % 0.0 in 935.0 W/m2 CLR
13:55 28.9 °F 17.4 °F 1015.5 in East 3.2 mph 3.2 mph 50 % 0.0 in 937.0 W/m2 CLR
14:00 29.1 °F 17.3 °F 1015.5 in ENE 13.0 mph 13.0 mph 49 % 0.0 in 939.0 W/m2 CLR
14:05 29.0 °F 16.9 °F 1015.1 in ESE 16.7 mph 16.7 mph 48 % 0.0 in 940.0 W/m2 CLR
14:10 28.6 °F 17.5 °F 1015.1 in ENE 19.3 mph 19.3 mph 51 % 0.0 in 937.0 W/m2 CLR
14:15 28.7 °F 17.6 °F 1015.1 in ENE 14.5 mph 14.5 mph 51 % 0.0 in 933.0 W/m2 CLR
14:20 28.6 °F 17.4 °F 1014.8 in ENE 18.5 mph 18.5 mph 51 % 0.0 in 937.0 W/m2 CLR
14:25 28.7 °F 17.2 °F 1014.8 in ENE 14.8 mph 14.8 mph 50 % 0.0 in 933.0 W/m2 CLR
14:30 28.8 °F 17.4 °F 1014.8 in East 22.2 mph 22.2 mph 50 % 0.0 in 935.0 W/m2 CLR
14:35 28.8 °F 17.7 °F 1014.8 in East 13.0 mph 13.0 mph 51 % 0.0 in 928.0 W/m2 CLR
14:40 29.2 °F 18.0 °F 1014.8 in East 5.6 mph 5.6 mph 51 % 0.0 in 921.0 W/m2 CLR
14:45 29.2 °F 17.7 °F 1014.4 in ENE 14.8 mph 14.8 mph 50 % 0.0 in 921.0 W/m2 CLR
14:50 29.3 °F 17.8 °F 1014.4 in ESE 18.5 mph 18.5 mph 50 % 0.0 in 919.0 W/m2 CLR
14:51 29.2 °F 18.1 °F 1014.4 in East 16.7 mph 16.7 mph 51 % 0.0 in 918.0 W/m2 CLR
14:56 29.2 °F 18.3 °F 1014.4 in ESE 18.5 mph 18.5 mph 52 % 0.0 in 912.0 W/m2 CLR
15:01 29.1 °F 18.3 °F 1014.4 in ESE 20.9 mph 20.9 mph 52 % 0.0 in 907.0 W/m2 CLR
15:06 28.8 °F 18.2 °F 1014.1 in East 16.7 mph 16.7 mph 53 % 0.0 in 904.0 W/m2 CLR
15:11 28.7 °F 18.4 °F 1014.1 in East 13.0 mph 13.0 mph 54 % 0.0 in 895.0 W/m2 CLR
15:16 29.2 °F 18.6 °F 1014.1 in East 18.5 mph 18.5 mph 53 % 0.0 in 895.0 W/m2 CLR
15:21 29.6 °F 18.9 °F 1014.1 in ENE 18.5 mph 18.5 mph 53 % 0.0 in 882.0 W/m2 CLR
15:26 29.1 °F 18.6 °F 1013.8 in East 18.5 mph 18.5 mph 53 % 0.0 in 879.0 W/m2 CLR
15:31 29.1 °F 19.1 °F 1013.8 in ENE 14.5 mph 14.5 mph 55 % 0.0 in 865.0 W/m2 CLR
15:36 29.5 °F 18.9 °F 1013.8 in East 11.1 mph 11.1 mph 53 % 0.0 in 860.0 W/m2 CLR
15:42 29.6 °F 18.7 °F 1013.8 in ESE 14.8 mph 14.8 mph 52 % 0.0 in 856.0 W/m2 CLR
15:47 29.6 °F 18.7 °F 1013.4 in East 18.5 mph 18.5 mph 52 % 0.0 in 844.0 W/m2 CLR
15:52 29.4 °F 18.9 °F 1013.4 in ESE 20.4 mph 20.4 mph 53 % 0.0 in 831.0 W/m2 CLR
15:57 29.7 °F 19.1 °F 1013.4 in ESE 22.2 mph 22.2 mph 53 % 0.0 in 833.0 W/m2 CLR
16:02 29.6 °F 18.9 °F 1013.4 in SE 18.5 mph 18.5 mph 53 % 0.0 in 823.0 W/m2 CLR
16:07 29.5 °F 18.6 °F 1013.4 in East 16.7 mph 16.7 mph 52 % 0.0 in 807.0 W/m2 CLR
16:12 29.5 °F 18.9 °F 1013.4 in ESE 19.3 mph 19.3 mph 53 % 0.0 in 802.0 W/m2 CLR
16:17 29.4 °F 18.8 °F 1013.4 in East 20.4 mph 20.4 mph 53 % 0.0 in 795.0 W/m2 CLR
16:22 29.5 °F 18.9 °F 1013.1 in ENE 18.5 mph 18.5 mph 53 % 0.0 in 788.0 W/m2 CLR
16:27 29.2 °F 18.7 °F 1013.1 in East 20.4 mph 20.4 mph 53 % 0.0 in 796.0 W/m2 CLR
16:32 29.3 °F 18.4 °F 1013.1 in ESE 18.5 mph 18.5 mph 52 % 0.0 in 754.0 W/m2 CLR
16:37 29.4 °F 18.2 °F 1013.1 in East 16.7 mph 16.7 mph 51 % 0.0 in 744.0 W/m2 CLR
16:42 29.6 °F 18.3 °F 1012.8 in ENE 22.2 mph 22.2 mph 51 % 0.0 in 728.0 W/m2 CLR
16:47 29.4 °F 18.2 °F 1012.8 in ESE 22.2 mph 22.2 mph 51 % 0.0 in 721.0 W/m2 CLR
16:52 29.5 °F 18.3 °F 1012.8 in ESE 19.3 mph 19.3 mph 51 % 0.0 in 715.0 W/m2 CLR
16:57 29.4 °F 18.2 °F 1012.8 in ESE 18.5 mph 18.5 mph 51 % 0.0 in 701.0 W/m2 CLR
17:02 29.7 °F 17.5 °F 1012.4 in SE 20.4 mph 20.4 mph 48 % 0.0 in 694.0 W/m2 CLR
17:07 29.8 °F 17.3 °F 1012.4 in ESE 14.8 mph 14.8 mph 47 % 0.0 in 680.0 W/m2 CLR
17:12 29.8 °F 17.7 °F 1012.4 in ESE 20.4 mph 20.4 mph 48 % 0.0 in 670.0 W/m2 CLR
17:17 30.1 °F 17.5 °F 1012.4 in ESE 20.4 mph 20.4 mph 47 % 0.0 in 657.0 W/m2 CLR
17:22 29.9 °F 16.7 °F 1012.4 in ESE 24.1 mph 24.1 mph 45 % 0.0 in 649.0 W/m2 CLR
17:27 29.7 °F 16.5 °F 1012.1 in SE 25.9 mph 25.9 mph 45 % 0.0 in 640.0 W/m2 CLR
17:32 29.6 °F 16.4 °F 1012.1 in SSE 29.6 mph 29.6 mph 45 % 0.0 in 624.0 W/m2 CLR
17:37 29.6 °F 16.4 °F 1012.1 in SE 27.8 mph 27.8 mph 45 % 0.0 in 610.0 W/m2 CLR
17:42 29.4 °F 16.9 °F 1012.1 in SE 20.4 mph 20.4 mph 47 % 0.0 in 598.0 W/m2 CLR
17:47 29.6 °F 17.1 °F 1012.1 in ESE 27.8 mph 27.8 mph 47 % 0.0 in 585.0 W/m2 CLR
17:49 29.5 °F 17.0 °F 1012.1 in ESE 20.4 mph 20.4 mph 47 % 0.0 in 582.0 W/m2 CLR
17:54 29.3 °F 17.5 °F 1012.1 in East 16.7 mph 16.7 mph 49 % 0.0 in 568.0 W/m2 CLR
17:59 29.2 °F 17.1 °F 1012.1 in ESE 18.5 mph 18.5 mph 48 % 0.0 in 554.0 W/m2 CLR
18:04 29.5 °F 16.7 °F 1012.1 in ESE 19.3 mph 19.3 mph 46 % 0.0 in 540.0 W/m2 CLR
18:09 29.1 °F 17.0 °F 1012.1 in ESE 20.9 mph 20.9 mph 48 % 0.0 in 526.0 W/m2 CLR
18:14 29.3 °F 16.4 °F 1012.1 in SSE 14.8 mph 14.8 mph 46 % 0.0 in 517.0 W/m2 CLR
18:19 29.3 °F 16.2 °F 1012.1 in SE 22.5 mph 22.5 mph 45 % 0.0 in 459.0 W/m2 CLR
18:24 29.3 °F 15.8 °F 1012.1 in SE 22.2 mph 22.2 mph 44 % 0.0 in 445.0 W/m2 CLR
18:29 29.4 °F 15.9 °F 1012.1 in ESE 13.0 mph 13.0 mph 44 % 0.0 in 332.0 W/m2 CLR
18:34 29.3 °F 15.8 °F 1012.1 in SE 22.2 mph 22.2 mph 44 % 0.0 in 214.0 W/m2 CLR
18:39 28.9 °F 15.4 °F 1011.7 in ESE 22.2 mph 22.2 mph 44 % 0.0 in 225.0 W/m2 CLR
18:44 28.7 °F 15.6 °F 1011.7 in ESE 24.1 mph 24.1 mph 45 % 0.0 in 221.0 W/m2 CLR
18:49 28.6 °F 15.8 °F 1011.7 in ESE 18.5 mph 18.5 mph 46 % 0.0 in 353.0 W/m2 CLR
18:54 28.6 °F 15.8 °F 1011.7 in SE 18.5 mph 18.5 mph 46 % 0.0 in 396.0 W/m2 CLR
18:59 28.6 °F 16.8 °F 1011.7 in ESE 16.7 mph 16.7 mph 49 % 0.0 in 422.0 W/m2 CLR
19:04 28.2 °F 16.5 °F 1011.7 in SE 18.5 mph 18.5 mph 49 % 0.0 in 427.0 W/m2 CLR
19:09 28.2 °F 15.8 °F 1011.7 in SE 24.1 mph 24.1 mph 47 % 0.0 in 364.0 W/m2 CLR
19:14 28.3 °F 15.9 °F 1011.7 in SE 17.7 mph 17.7 mph 47 % 0.0 in 304.0 W/m2 CLR
19:19 28.1 °F 16.1 °F 1011.7 in SE 20.4 mph 20.4 mph 48 % 0.0 in 241.0 W/m2 CLR
19:24 28.1 °F 16.0 °F 1011.7 in SE 20.9 mph 20.9 mph 48 % 0.0 in 174.0 W/m2 CLR
19:26 28.0 °F 15.9 °F 1011.7 in SE 22.2 mph 22.2 mph 48 % 0.0 in 156.0 W/m2 CLR
19:31 27.7 °F 15.7 °F 1011.7 in SE 20.4 mph 20.4 mph 48 % 0.0 in 105.0 W/m2 CLR
19:36 27.6 °F 15.6 °F 1011.7 in SSE 18.5 mph 18.5 mph 48 % 0.0 in 97.0 W/m2 CLR
19:41 27.3 °F 15.6 °F 1011.4 in SSE 18.5 mph 18.5 mph 49 % 0.0 in 97.0 W/m2 CLR
19:46 27.2 °F 15.8 °F 1011.4 in ESE 20.4 mph 20.4 mph 50 % 0.0 in 199.0 W/m2 CLR
19:51 27.1 °F 15.7 °F 1011.4 in SE 20.4 mph 20.4 mph 50 % 0.0 in 146.0 W/m2 CLR
19:56 27.0 °F 15.7 °F 1011.4 in SSE 20.4 mph 20.4 mph 50 % 0.0 in 202.0 W/m2 CLR
20:01 26.9 °F 15.9 °F 1011.4 in SE 18.5 mph 18.5 mph 51 % 0.0 in 149.0 W/m2 CLR
20:06 26.8 °F 15.8 °F 1011.4 in SE 18.5 mph 18.5 mph 51 % 0.0 in 114.0 W/m2 CLR
20:11 26.8 °F 15.8 °F 1011.4 in SE 16.7 mph 16.7 mph 51 % 0.0 in 95.0 W/m2 CLR
20:16 26.6 °F 15.9 °F 1011.4 in SE 20.4 mph 20.4 mph 52 % 0.0 in 118.0 W/m2 CLR
20:21 26.4 °F 16.1 °F 1011.4 in SE 13.0 mph 13.0 mph 53 % 0.0 in 130.0 W/m2 CLR
20:26 26.2 °F 15.9 °F 1011.4 in ESE 9.3 mph 9.3 mph 53 % 0.0 in 77.0 W/m2 CLR
20:31 26.1 °F 16.1 °F 1011.4 in SE 11.1 mph 11.1 mph 54 % 0.0 in 84.0 W/m2 FEW
20:36 25.9 °F 16.2 °F 1011.4 in SSE 13.0 mph 13.0 mph 55 % 0.0 in 72.0 W/m2 FEW
20:41 25.9 °F 15.9 °F 1011.4 in South 7.4 mph 7.4 mph 54 % 0.0 in 62.0 W/m2 SCT
20:46 26.1 °F 14.8 °F 1011.4 in SSE 16.7 mph 16.7 mph 50 % 0.0 in 51.0 W/m2 SCT
20:51 26.1 °F 14.5 °F 1011.4 in SSE 24.1 mph 24.1 mph 49 % 0.0 in 35.0 W/m2 BKN
20:56 26.3 °F 13.4 °F 1011.4 in South 20.4 mph 20.4 mph 45 % 0.0 in 25.0 W/m2 BKN
21:01 26.4 °F 13.2 °F 1011.4 in SSW 25.9 mph 25.9 mph 44 % 0.0 in 19.0 W/m2 BKN
21:06 26.3 °F 13.1 °F 1011.7 in SSE 22.2 mph 22.2 mph 44 % 0.0 in 18.0 W/m2 BKN
21:11 26.2 °F 13.0 °F 1011.7 in South 18.5 mph 18.5 mph 44 % 0.0 in 12.0 W/m2 BKN
21:16 26.1 °F 12.9 °F 1011.7 in South 20.4 mph 20.4 mph 44 % 0.0 in 7.0 W/m2 BKN
21:22 26.0 °F 12.8 °F 1011.7 in South 14.8 mph 14.8 mph 44 % 0.0 in 0.0 W/m2 OVC
21:27 25.9 °F 13.1 °F 1011.7 in SSE 16.7 mph 16.7 mph 45 % 0.0 in 0.0 W/m2 OVC
21:32 25.7 °F 12.9 °F 1011.7 in SE 16.1 mph 16.1 mph 45 % 0.0 in 0.0 W/m2 OVC
21:37 25.6 °F 13.1 °F 1011.7 in SSE 11.1 mph 12.2 mph 46 % 0.0 in 0.0 W/m2 OVC
21:42 25.4 °F 13.0 °F 1011.7 in SSE 13.0 mph 13.0 mph 46 % 0.0 in 0.0 W/m2 CLR
21:47 25.3 °F 12.9 °F 1011.7 in SSE 13.0 mph 13.0 mph 46 % 0.0 in 0.0 W/m2 CLR
21:52 25.3 °F 12.5 °F 1012.1 in SSE 9.3 mph 9.3 mph 45 % 0.0 in 0.0 W/m2 CLR
21:57 25.3 °F 12.6 °F 1012.1 in South 18.5 mph 18.5 mph 45 % 0.0 in 0.0 W/m2 CLR
22:02 25.3 °F 12.6 °F 1012.1 in SSE 14.8 mph 14.8 mph 45 % 0.0 in 0.0 W/m2 CLR
22:07 25.2 °F 12.4 °F 1012.1 in SSE 13.0 mph 13.0 mph 45 % 0.0 in 0.0 W/m2 CLR
22:12 25.2 °F 12.4 °F 1012.1 in SSE 18.5 mph 18.5 mph 45 % 0.0 in 0.0 W/m2 CLR
22:17 25.0 °F 12.2 °F 1012.1 in SSE 13.0 mph 13.0 mph 45 % 0.0 in 0.0 W/m2 CLR
22:22 24.9 °F 12.5 °F 1012.1 in South 6.4 mph 6.4 mph 46 % 0.0 in 0.0 W/m2 CLR
22:27 24.6 °F 12.2 °F 1012.1 in SE 5.6 mph 5.6 mph 46 % 0.0 in 0.0 W/m2 CLR
22:32 24.5 °F 12.4 °F 1012.1 in SE 5.6 mph 5.6 mph 47 % 0.0 in 0.0 W/m2 CLR
22:37 24.4 °F 12.3 °F 1012.1 in SSE 8.0 mph 8.0 mph 47 % 0.0 in 0.0 W/m2 CLR
22:42 24.3 °F 12.3 °F 1012.1 in SE 12.9 mph 12.9 mph 47 % 0.0 in 0.0 W/m2 CLR
22:47 24.2 °F 12.2 °F 1012.1 in SE 5.6 mph 5.6 mph 47 % 0.0 in 0.0 W/m2 CLR
22:52 24.1 °F 12.4 °F 1012.1 in Calm     48 % 0.0 in 0.0 W/m2 CLR
22:57 23.8 °F 12.8 °F 1012.1 in Calm     50 % 0.0 in 0.0 W/m2 CLR
23:02 23.7 °F 12.1 °F 1012.4 in SE 14.8 mph 14.8 mph 48 % 0.0 in 0.0 W/m2 CLR
23:07 23.9 °F 11.9 °F 1012.4 in SE 14.8 mph 14.8 mph 47 % 0.0 in 0.0 W/m2 CLR
23:12 23.9 °F 11.9 °F 1012.4 in SSE 9.3 mph 9.3 mph 47 % 0.0 in 0.0 W/m2 CLR
23:17 24.0 °F 12.0 °F 1012.4 in South 14.8 mph 14.8 mph 47 % 0.0 in 0.0 W/m2 CLR
23:22 23.9 °F 11.9 °F 1012.4 in SSE 11.1 mph 11.1 mph 47 % 0.0 in 0.0 W/m2 CLR
23:27 23.9 °F 12.2 °F 1012.4 in SE 5.6 mph   48 % 0.0 in 0.0 W/m2 CLR
23:28 23.9 °F 12.2 °F 1012.4 in Calm     48 % 0.0 in 0.0 W/m2 CLR
23:33 23.8 °F 11.8 °F 1012.4 in SSE 12.9 mph 12.9 mph 47 % 0.0 in 0.0 W/m2 CLR
23:38 23.8 °F 11.8 °F 1012.4 in SSE 7.4 mph 7.4 mph 47 % 0.0 in 0.0 W/m2 CLR
23:43 23.7 °F 11.7 °F 1012.4 in SSE 13.0 mph 13.0 mph 47 % 0.0 in 0.0 W/m2 CLR
23:48 23.7 °F 12.0 °F 1012.4 in Calm     48 % 0.0 in 0.0 W/m2 CLR
23:53 23.7 °F 11.7 °F 1012.4 in SE 9.3 mph 9.3 mph 47 % 0.0 in 0.0 W/m2 CLR
23:58 23.7 °F 11.7 °F 1012.8 in SE 7.4 mph 7.4 mph 47 % 0.0 in 0.0 W/m2 CLR
Lo Temps de Massalio
Compliments of Weather Underground - 1.25 mb